www.pogodaiklimat.ru

Погода и климат >> Архив погоды >> Россия >> Карелия >> Пудож


ПОГОДА в Пудоже

  • Прогноз погоды в Пудоже
  • Монитор погоды в Пудоже

АРХИВ ПОГОДЫ в Пудоже

Время (UTC), дата Ветер
(напр.,м/с)
 
Видим.   Явления Облачность Т
(С)
Тd
(С)
f
(%)
Тe
(С)
Тes
(С)
Комфортность P
(гПа)
Po
(гПа)
Тmin
(С)
Tmax
(С)
R
(мм)
R24
(мм)
S
(см)
12 14.03 Ю 2 20 км ясно +1.1 -10.8 41 -1 +1 1011.4 1005.9
15 14.03 ЮВ 2 20 км 1/0
[Ac trans]
-0.8 -10.4 48 -4 -4 1010.3 1004.7
18 14.03 ЮВ 1 10 км ясно -5.1 -10.5 66 -7 -7 1010.0 1004.3 +1.3
21 14.03 ЮВ 1 10 км 9/9 1350 м
[Sc]
-2.8 -9.2 61 -5 -5 1009.1 1003.5
00 15.03 ЮВ 2 10 км 9/9 870 м
[Sc]
-2.3 -7.9 65 -6 -6 1008.3 1002.7
03 15.03 В 1 10 км 9/8 900 м
[Sc Ac trans]
-2.6 -6.8 73 -5 -5 1007.5 1001.9 -6.2
06 15.03 В 1 20 км 9/4 1000 м
[Sc Ac trans]
-2.3 -6.3 74 -4 -4 1006.9 1001.3 -6.2 85
09 15.03 ЮВ 2 20 км 9/9 630 м
[Sc]
+1.2 -4.1 68 -2 -1 1006.1 1000.6
12 15.03 ЮВ 2 20 км 9/9 630 м
[Sc]
+1.6 -2.5 74 -2 -1 1005.6 1000.1
15 15.03 ЮВ 2 10 км слаб. снег 10/0 300 м
[As op]
+0.6 -0.7 91 -3 -3 1004.7 999.2 0.5
18 15.03 ЮВ 1 4000 м слаб. снег 10/10 180 м
[Frnb Ns]
+0.3 -0.6 94 -2 -2 1004.3 998.8 +2.2 1
21 15.03 Ю 1 10 км {снег} 10/10 540 м
[Cb cap]
+0.7 -0.5 92 -1 -1 1004.2 998.7
00 16.03 ЮВ 2 10 км {снег} 10/10 630 м
[Cb cap]
+0.6 -1.0 89 -3 -3 1004.0 998.5
03 16.03 ЮВ 1 10 км 10/10 630 м
[Cb cap]
+0.7 -1.3 86 -1 -1 1003.5 998.0 +0.3 1
06 16.03 ЮВ 2 20 км 10/10 1050 м
[Sc]
+1.3 -1.8 80 -2 -2 1003.5 998.0 +0.4 0.4 85
09 16.03 ЮВ 1 10 км слаб. ливневой снег 10/10 630 м
[Cb cap]
+1.5 -1.6 80 -0 -0 1004.3 998.8
12 16.03 ЮВ 3 20 км {ливн. осадки} 8/0
[Ac trans Ci fib]
+4.0 -3.0 60 +1 +2 1004.3 998.9
15 16.03 ЮВ 2 20 км 8/0
[Ac trans Ci fib]
+0.8 -4.4 68 -2 -2 1005.5 1000.0 0.6
18 16.03 ЮВ 1 10 км 9/9 800 м
[Sc]
-1.2 -4.9 76 -3 -3 1006.5 1000.9 +4.7 0.6
21 16.03 ЮВ 2 10 км 9/9 840 м
[Sc]
-1.0 -5.8 70 -4 -4 1007.5 1001.9
00 17.03 Ю 1 10 км 10/10 750 м
[Sc]
-0.9 -5.7 70 -3 -3 1007.8 1002.2
03 17.03 ЮВ 1 10 км 10/10 800 м
[Sc]
-1.3 -5.3 74 -3 -3 1008.0 1002.4 -2.2
06 17.03 ЮВ 3 20 км 9/9 800 м
[Sc]
-0.7 -5.4 70 -5 -5 1008.8 1003.2 -1.4 85
09 17.03 Ю 2 20 км 9/9 1080 м
[Sc]
+1.4 -5.3 61 -2 -1 1009.2 1003.7
12 17.03 ЮВ 2 20 км 9/9 960 м
[Sc]
+2.3 -4.2 62 -0 -0 1009.5 1004.0
15 17.03 ЮВ 2 20 км 9/9 750 м
[Sc]
+1.8 -3.2 69 -1 -1 1010.1 1004.6
18 17.03 ЮВ 2 10 км 10/0 450 м
[As op]
+0.9 -1.9 82 -3 -3 1010.5 1005.0 +2.6
21 17.03 ЮВ 1 10 км 10/10 800 м
[Sc]
+1.2 -1.7 81 -1 -1 1010.5 1005.0
00 18.03 Ю 2 10 км 10/10 1050 м
[Sc]
+2.1 -2.1 74 -1 -1 1010.3 1004.8
03 18.03 ЮВ 3 10 км 10/10 1020 м
[Sc]
+1.5 -2.4 75 -3 -3 1010.0 1004.5 +0.8
06 18.03 ЮВ 4 20 км 10/0
[As op]
+1.3 -2.8 74 -4 -3 1009.1 1003.6 +0.6 85
09 18.03 ЮВ 3 20 км 10/10 800 м
[Sc]
+3.2 -2.3 67 -0 -0 1008.7 1003.2
12 18.03 ЮВ 3
{10}
20 км в посл. час дождь 10/10 800 м
[Sc]
+3.5 -1.6 69 -0 -0 1008.4 1002.9
15 18.03 Ю 2 10 км слаб. дождь 10/0 400 м
[As op]
+1.8 +0.3 90 -2 -2 1008.1 1002.6 0.7
18 18.03 Ю 1 4000 м слаб. дождь 10/10 240 м
[Frnb Ns]
+1.3 +0.3 93 -1 -1 1008.0 1002.5 +4.1 3
21 18.03 Ю 1 4000 м слаб. дождь 10/10 180 м
[Frnb Ns]
+0.7 +0.1 96 -1 -1 1007.4 1001.9
00 19.03 ЮЗ 1 10 км {снег, дождь} 10/10 150 м
[Frnb Ns]
+1.0 +0.3 95 -1 -1 1008.8 1003.3
03 19.03 ЮЗ 1 10 км 10/10 60 м
[St]
+0.6 -0.1 95 -2 -2 1010.8 1005.3 +0.1 7
06 19.03 Ю 1 20 км 10/10 120 м
[Frnb Ns]
+1.2 +0.3 94 -1 -1 1011.8 1006.3 +0.1 4 83
09 19.03 ЮЗ 1 20 км 10/0 270 м
[As op]
+2.4 +0.5 87 +1 +2 1012.6 1007.1
12 19.03 Ю 1 10 км слаб. дождь 10/0 360 м
[As op]
+3.3 +1.0 85 +2 +3 1012.7 1007.2
15 19.03 штиль 0 20 км {дождь} 9/5 540 м
[Cb cap Ac trans]
+2.6 +1.4 92 +1 +1 1013.0 1007.5 0.3
18 19.03 штиль 0 10 км {ливн. осадки, дождь} 9/9 630 м
[Cb cap]
+0.6 0.0 96 -1 -1 1013.5 1007.9 +4.1 0.3
21 19.03 штиль 0 10 км 9/9 570 м
[Cb cap]
+0.2 -0.4 96 -1 -1 1013.7 1008.1
00 20.03 штиль 0 4000 м слаб. снег {дождь} 10/10 120 м
[Frnb Ns]
+0.4 +0.1 98 -1 -1 1013.2 1007.6
03 20.03 штиль 0 4000 м дымка {снег} 10/10 90 м
[St]
0.0 -0.4 97 -1 -1 1013.1 1007.5 -0.1 1
06 20.03 З 1 10 км дымка {снег} 10/10 120 м
[Frnb Ns]
+1.2 +0.6 96 -1 -1 1013.4 1007.9 -0.1 1 82
09 20.03 З 2 10 км слаб. снег {дождь} 10/10 210 м
[Frnb Ns]
+1.6 +0.3 91 -2 -2 1014.1 1008.6
12 20.03 З 1 10 км слаб. дождь 10/10 180 м
[Frnb Ns]
+1.9 +0.4 90 0 0 1014.3 1008.8
15 20.03 З 2 20 км {дождь} 10/10 720 м
[Sc]
+1.7 +0.3 90 -2 -2 1014.2 1008.7 0.4
18 20.03 ЮЗ 1 10 км {дождь} 10/10 300 м
[Cb cap]
+0.8 -0.1 94 -1 -1 1013.7 1008.2 +2.5 0.4
21 20.03 ЮЗ 2 10 км 10/10 450 м
[Cb cap]
-0.2 -2.5 84 -4 -4 1013.3 1007.7
00 21.03 ЮЗ 1 10 км 10/10 570 м
[Cb cap]
-0.3 -2.2 87 -2 -2 1012.4 1006.8
03 21.03 Ю 1 10 км 10/10 180 м
[Frnb Ns]
-0.5 -1.6 92 -3 -3 1011.4 1005.8 -0.6
06 21.03 Ю 1 10 км слаб. снег 10/10 180 м
[Frnb Ns]
0.0 -1.0 93 -2 -2 1010.8 1005.3 -0.6 0.4 80
09 21.03 ЮЗ 2 10 км слаб. снег 10/0 210 м
[As op]
+1.4 -0.4 88 -2 -1 1010.7 1005.2

 

Местоположение метеостанции Пудож (Карелия, Россия): широта 61.80 долгота 36.52 высота над уровнем моря 44 м.

В архиве по умолчанию представлена погода в Пудоже за последнюю неделю. Архивные данные за месяц целиком и за предыдущие месяцы, начиная с января 2011 года, Вы можете получить, выбрав интересующий диапазон дат из раскрывающегося списка и нажав кнопку "Ввод!".


*Определитесь, кто Вы:
робот инопланетянин человек

Внимание! Время в таблицах - всемирное. Для получения местного времени необходимо прибавить поправку, которая равна 3 ч.

Смотрите также архив погоды в соседних городах и на ближайших метеорологических станциях:

Погода в Маячном (Карелия, Россия) (67 км)
Погода в Вытегре (Вологодская область, Россия) (87 км)
Погода в Вознесенье (Ленинградская область, Россия) (103 км)
Погода в Петрозаводске (Карелия, Россия) (118 км)
Погода в Кондопоге (Карелия, Россия) (123 км)
Погода в Каргополе (Архангельская область, Россия) (132 км)
Погода в Конево (Архангельская область, Россия) (150 км)
Погода в Пряже (Ленинградская область, Россия) (153 км)
Погода в Винницах (Ленинградская область, Россия) (160 км)
Погода в Медвежьегорске (Карелия, Россия) (165 км)

Пояснения к столбцам:

Ветер - указаны скорость ветра в м/с - средняя за 10 мин, порывы в срок и между сроками (в фигурных скобках) и направление, откуда дует ветер: С - северный, СВ - северо-восточный, В - восточный, ЮВ - юго-восточный, Ю - южный, ЮЗ - юго-западный, З - западный, СЗ - северо-западный.
Видимость - горизонтальная дальность видимости в метрах или километрах. При видимости от 1 до 10 км при отсутствии осадков обычно наблюдается дымка, при ухудшении видимости до 1 км и менее - туман. В сухую погоду видимость может ухудшаться дымом, пылью или мглою.
Явления - указаны атмосферные явления, наблюдавшиеся в срок или в последний час перед сроком; фигурными скобками обозначены явления, наблюдавшиеся между сроками (за 1-3 часа до срока); квадратными скобками обозначены град или гололедные отложения с указанием их диаметра в мм.
Облачность - указаны через наклонную черту общая и нижняя облачность в баллах и высота нижней границы облаков в метрах; квадратными скобками обозначены формы облаков: Ci - перистые, Cs - перисто-слоистые, Cc - перисто-кучевые, Ac - высококучевые, As - высокослоистые, Sc - слоисто-кучевые, Ns - слоисто-дождевые, Cu - кучевые, Cb - кучево-дождевые. Подробнее классификацию облаков см. в Атласе облаков (PDF).
T - Температура воздуха - температура, измеренная на высоте 2 м над землей.
Td - Температура точки росы - температура, при понижении до которой содержащийся в воздухе водяной пар достигнет насыщения.
f - Относительная влажность воздуха - влажноcть воздуха, измеренная на высоте 2 м над землей.
Te - Эффективная температура - температура, которую ощущает одетый по сезону человек в тени. Характеристика душности погоды. При расчете учитывается влияние влажности воздуха и скорости ветра на теплоощущения человека.
Tes - Эффективная температура на солнце - температура, которую ощущает человек, с поправкой на солнечный нагрев. Характеристика знойности погоды. Зависит от высоты солнца над горизонтом, облачности и скорости ветра. Ночью, в пасмурную погоду, а также при ветре 12 м/с и более поправка равна нулю.
P - Атмосферное давление - приведенное к уровню моря атмосферное давление.
Po - Атмосферное давление - измеренное на уровне метеостанции атмосферное давление.
Tmin - Минимальная температура - минимум температуры воздуха на высоте 2 м над землей.
Tmax - Максимальная температура - максимум температуры воздуха на высоте 2 м над землей.
R - Количество осадков - Количество выпавших осадков за период времени, мм. При наведении курсора мыши на число - период времени, за который выпало указанное количество осадков.
R24 - Количество осадков - Количество выпавших осадков за 24 часа, мм.
S - Снежный покров - Высота снежного покрова, см. При наведении курсора мыши на число - состояние снежного покрова и степень покрытия местности в баллах.